Tracking 28514 objects as of 25-Feb-2024
HD Live streaming from Space Station
objects crossing your sky now

BRAZILSAT B2

Track BRAZILSAT B2 now!
BRAZILSAT B2 is classified as:


NORAD ID: 23536
Int'l Code: 1995-016A
Perigee: 36,077.2 km
Apogee: 36,092.1 km
Inclination: 10.8 °
Period: 1,451.0 minutes
Semi major axis: 42455 km
RCS: 7.5458 m2 (large)
Launch date: March 28, 1995
Source: Brazil (BRAZ)
Launch site: FRENCH GUIANA (FRGUI)

24 C-band; several X-band.
Your satellite tracking list
Your tracking list is empty




NASA's NSSDC Master Catalog

Two Line Element Set (TLE):
1 23536U 95016A   24055.79617646 -.00000286  00000-0  00000-0 0  9999
2 23536  10.7557  37.5460 0001758 237.8596 321.0712  0.99243033105726
Source of the keplerian elements: AFSPC